Date String (YYYY-MM-DD hh:mm:ss) UTC,Instrument flags,Ambient pressure (hPa),Sample flow (lpm),Bypass flow (lpm),Sample temperature (°C),Ambient temperature (°C),ASC tube jacket temperature (°C),LED temperature (°C),Box temperature (°C),Sample RH (%),Span deviation,Mass concentration (μg/m³),Mass concentration (μg/m³),Mass concentration (μg/m³)
DateTimeUTC,F1_M11,P_M11,Q1_M11,Q2_M11,T1_M11,T2_M11,T3_M11,T4_M11,T5_M11,U1_M11,ZSPAN_M11,X0_M11,X2_M11,X1_M11
2021-12-28 04:00:00,,0806.2,4.99,0.00,22.7,21.9,00.0,31.7,24.5,09.6,0000.0,0014.05,0003.78,0002.67
2021-12-28 04:01:00,,0806.2,5.01,0.00,22.7,21.9,00.0,31.7,24.5,09.6,0000.0,0014.27,0003.79,0002.67
2021-12-28 04:02:00,,0806.2,4.99,0.00,22.7,21.9,00.0,31.7,24.5,09.6,0000.0,0014.33,0003.84,0002.69
2021-12-28 04:03:00,,0806.2,5.00,0.00,22.7,21.9,00.0,31.7,24.4,09.6,0000.0,0015.09,0003.96,0002.73
2021-12-28 04:04:00,,0806.2,5.01,0.00,22.7,21.9,00.0,31.7,24.4,09.7,0000.0,0015.67,0004.04,0002.77
2021-12-28 04:05:00,,0806.4,5.00,0.00,22.7,21.9,00.0,31.7,24.4,09.7,0000.0,0015.36,0004.10,0002.79
2021-12-28 04:06:00,,0806.4,4.99,0.00,22.7,21.9,00.0,31.7,24.3,09.7,0000.0,0015.08,0004.10,0002.80
2021-12-28 04:07:00,,0806.5,4.99,0.00,22.7,21.9,00.0,31.7,24.4,09.7,0000.0,0015.54,0004.14,0002.82
2021-12-28 04:08:00,,0806.5,5.00,0.00,22.7,21.9,00.0,31.7,24.4,09.7,0000.0,0015.77,0004.19,0002.84
2021-12-28 04:09:00,,0806.4,5.01,0.00,22.7,21.9,00.0,31.7,24.4,09.7,0000.0,0016.05,0004.22,0002.87
2021-12-28 04:10:00,,0806.4,5.01,0.00,22.7,21.9,00.0,31.7,24.4,09.7,0000.0,0016.49,0004.22,0002.89
2021-12-28 04:11:00,,0806.4,4.98,0.00,22.7,21.9,00.0,31.7,24.4,09.7,0000.0,0016.65,0004.19,0002.93
2021-12-28 04:12:00,,0806.4,5.01,0.00,22.7,21.9,00.0,31.7,24.4,09.7,0000.0,0016.19,0004.23,0002.97
2021-12-28 04:13:00,,0806.4,5.01,0.00,22.7,21.9,00.0,31.6,24.4,09.7,0000.0,0016.14,0004.28,0003.01
2021-12-28 04:14:00,,0806.5,4.98,0.00,22.7,21.9,00.0,31.6,24.4,09.7,0000.0,0015.74,0004.22,0003.04
2021-12-28 04:15:00,,0806.4,5.00,0.00,22.7,21.9,00.0,31.6,24.4,09.7,0000.0,0014.67,0004.16,0003.05
2021-12-28 04:16:00,,0806.4,5.01,0.00,22.7,21.9,00.0,31.6,24.4,09.7,0000.0,0014.60,0004.13,0003.04
2021-12-28 04:17:00,,0806.4,4.99,0.00,22.7,21.9,00.0,31.6,24.4,09.7,0000.0,0015.35,0004.17,0003.04
2021-12-28 04:18:00,,0806.3,5.01,0.00,22.7,21.9,00.0,31.6,24.4,09.7,0000.0,0016.57,0004.20,0003.04
2021-12-28 04:19:00,,0806.2,5.00,0.00,22.7,21.9,00.0,31.6,24.4,09.7,0000.0,0016.37,0004.19,0003.05
2021-12-28 04:20:00,,0806.2,4.99,0.00,22.7,21.9,00.0,31.6,24.4,09.7,0000.0,0017.69,0004.20,0003.05
2021-12-28 04:21:00,,0806.2,5.00,0.00,22.7,21.9,00.0,31.6,24.4,09.7,0000.0,0017.16,0004.21,0003.09
2021-12-28 04:22:00,,0806.2,4.99,0.00,22.7,21.9,00.0,31.6,24.4,09.7,0000.0,0017.09,0004.29,0003.12
2021-12-28 04:23:00,,0806.3,5.01,0.00,22.7,21.9,00.0,31.6,24.5,09.7,0000.0,0017.31,0004.31,0003.13
2021-12-28 04:24:00,,0806.4,4.99,0.00,22.7,21.9,00.0,31.6,24.4,09.8,0000.0,0017.11,0004.28,0003.13
2021-12-28 04:25:00,,0806.4,5.00,0.00,22.7,21.9,00.0,31.6,24.4,09.8,0000.0,0017.18,0004.31,0003.13
2021-12-28 04:26:00,,0806.3,5.02,0.00,22.7,21.9,00.0,31.6,24.5,09.8,0000.0,0017.62,0004.34,0003.14
2021-12-28 04:27:00,,0806.4,4.99,0.00,22.7,21.9,00.0,31.6,24.5,09.8,0000.0,0018.42,0004.36,0003.15
2021-12-28 04:28:00,,0806.5,5.00,0.00,22.7,21.9,00.0,31.6,24.5,09.8,0000.0,0017.86,0004.33,0003.16
2021-12-28 04:29:00,,0806.5,5.01,0.00,22.7,21.9,00.0,31.6,24.4,09.8,0000.0,0016.30,0004.29,0003.18
2021-12-28 04:30:00,,0806.6,4.99,0.00,22.7,21.9,00.0,31.6,24.4,09.8,0000.0,0016.05,0004.26,0003.20
2021-12-28 04:31:00,,0806.5,5.01,0.00,22.6,21.8,00.0,31.6,24.3,09.9,0000.0,0014.27,0004.28,0003.23
2021-12-28 04:32:00,,0806.5,5.00,0.00,22.6,21.8,00.0,31.6,24.3,09.9,0000.0,0013.72,0004.26,0003.24
2021-12-28 04:33:00,,0806.5,5.01,0.00,22.6,21.7,00.0,31.6,24.2,09.9,0000.0,0013.47,0004.21,0003.24
2021-12-28 04:34:00,,0806.5,4.99,0.00,22.5,21.7,00.0,31.6,24.2,09.8,0000.0,0013.07,0004.16,0003.23
2021-12-28 04:35:00,,0806.6,4.99,0.00,22.5,21.7,00.0,31.6,24.2,09.8,0000.0,0012.80,0004.16,0003.23
2021-12-28 04:36:00,,0806.5,5.01,0.00,22.5,21.6,00.0,31.6,24.2,09.8,0000.0,0013.38,0004.09,0003.22
2021-12-28 04:37:00,,0806.5,5.01,0.00,22.5,21.7,00.0,31.6,24.2,09.8,0000.0,0014.39,0004.08,0003.22
2021-12-28 04:38:00,,0806.5,4.99,0.00,22.5,21.7,00.0,31.5,24.2,09.8,0000.0,0014.12,0004.05,0003.21
2021-12-28 04:39:00,,0806.5,5.00,0.00,22.5,21.7,00.0,31.5,24.2,09.8,0000.0,0013.89,0004.01,0003.20
2021-12-28 04:40:00,,0806.5,5.00,0.00,22.5,21.7,00.0,31.5,24.3,09.7,0000.0,0013.84,0004.00,0003.17
2021-12-28 04:41:00,,0806.5,5.00,0.00,22.5,21.7,00.0,31.5,24.3,09.8,0000.0,0014.38,0003.98,0003.15
2021-12-28 04:42:00,,0806.5,4.99,0.00,22.5,21.7,00.0,31.5,24.3,09.8,0000.0,0014.90,0003.94,0003.10
2021-12-28 04:43:00,,0806.4,5.01,0.00,22.5,21.7,00.0,31.5,24.2,09.8,0000.0,0015.52,0003.92,0003.05
2021-12-28 04:44:00,,0806.5,4.99,0.00,22.5,21.7,00.0,31.5,24.1,09.8,0000.0,0015.36,0003.94,0003.01
2021-12-28 04:45:00,,0806.4,5.01,0.00,22.4,21.6,00.0,31.5,24.1,09.9,0000.0,0015.34,0003.98,0003.01
2021-12-28 04:46:00,,0806.4,5.00,0.00,22.4,21.6,00.0,31.5,24.1,09.9,0000.0,0015.81,0004.04,0003.02
2021-12-28 04:47:00,,0806.2,4.99,0.00,22.4,21.6,00.0,31.5,24.1,09.9,0000.0,0014.81,0004.10,0003.03
2021-12-28 04:48:00,,0806.2,5.00,0.00,22.4,21.6,00.0,31.5,24.1,09.9,0000.0,0012.95,0004.09,0003.04
2021-12-28 04:49:00,,0806.2,5.00,0.00,22.4,21.6,00.0,31.5,24.1,09.9,0000.0,0012.74,0004.14,0003.07
2021-12-28 04:50:00,,0806.3,4.98,0.00,22.5,22.1,00.0,31.5,24.3,09.9,0000.0,0013.32,0004.17,0003.09
2021-12-28 04:51:00,,0806.2,5.01,0.00,22.6,22.8,00.0,31.5,24.5,09.8,0000.0,0013.80,0004.25,0003.13
2021-12-28 04:52:00,,0806.1,5.00,0.00,22.7,23.0,00.0,31.6,24.7,09.8,0000.0,0013.33,0004.30,0003.15
2021-12-28 04:53:00,,0806.1,5.00,0.00,22.8,22.8,00.0,31.6,24.7,09.7,0000.0,0013.12,0004.32,0003.18
2021-12-28 04:54:00,,0806.0,5.00,0.00,22.8,22.7,00.0,31.6,24.6,09.8,0000.0,0013.84,0004.33,0003.20
2021-12-28 04:55:00,,0806.0,5.00,0.00,22.7,22.5,00.0,31.6,24.5,09.8,0000.0,0014.09,0004.33,0003.22
2021-12-28 04:56:00,,0806.0,4.99,0.00,22.7,22.4,00.0,31.6,24.5,09.8,0000.0,0015.02,0004.36,0003.23
2021-12-28 04:57:00,,0806.0,5.00,0.00,22.7,22.3,00.0,31.6,24.4,09.8,0000.0,0016.38,0004.34,0003.24
2021-12-28 04:58:00,,0806.0,5.01,0.00,22.7,22.2,00.0,31.6,24.4,09.8,0000.0,0016.84,0004.33,0003.26
2021-12-28 04:59:00,,0806.0,5.00,0.00,22.7,22.1,00.0,31.6,24.4,09.8,0000.0,0017.45,0004.39,0003.28
